Time,TemperatureF,DewpointF,PressureIn,WindDirection,WindDirectionDegrees,WindSpeedMPH,WindSpeedGustMPH,Humidity,HourlyPrecipIn,Conditions,Clouds,dailyrainin,SoftwareType,DateUTC
2013-02-12 00:00:00,28.0,19.0,-100.00,North,-999,-999.0,-999.0,69,0.00,,,-99.99,,2013-02-12 08:00:00,
2013-02-12 01:00:00,26.0,19.0,-100.00,North,-999,-999.0,-999.0,74,0.00,,,-99.99,,2013-02-12 09:00:00,
2013-02-12 02:00:00,30.0,17.0,-100.00,North,-999,-999.0,-999.0,59,0.00,,,-99.99,,2013-02-12 10:00:00,
2013-02-12 03:00:00,32.0,13.0,-100.00,North,-999,-999.0,-999.0,45,0.00,,,-99.99,,2013-02-12 11:00:00,
2013-02-12 03:52:00,32.0,13.0,-100.00,North,-999,-999.0,-999.0,45,0.00,,,-99.99,,2013-02-12 11:52:00,
2013-02-12 04:00:00,32.0,17.0,-100.00,North,-999,-999.0,-999.0,53,0.00,,,-99.99,,2013-02-12 12:00:00,
2013-02-12 05:00:00,31.0,18.0,-100.00,North,-999,-999.0,-999.0,58,0.00,,,-99.99,,2013-02-12 13:00:00,
2013-02-12 06:00:00,33.0,26.0,-100.00,North,-999,-999.0,-999.0,74,0.00,,,-99.99,,2013-02-12 14:00:00,
2013-02-12 07:00:00,33.0,25.0,-100.00,North,-999,-999.0,-999.0,73,0.00,,,-99.99,,2013-02-12 15:00:00,
2013-02-12 08:00:00,33.0,26.0,-100.00,North,-999,-999.0,-999.0,74,0.00,,,-99.99,,2013-02-12 16:00:00,
2013-02-12 08:52:00,33.0,26.0,-100.00,North,-999,-999.0,-999.0,74,0.00,,,-99.99,,2013-02-12 16:52:00,
2013-02-12 09:00:00,32.0,27.0,-100.00,North,-999,-999.0,-999.0,80,0.00,,,-99.99,,2013-02-12 17:00:00,
2013-02-12 10:00:00,33.0,28.0,-100.00,North,-999,-999.0,-999.0,82,0.00,,,-99.99,,2013-02-12 18:00:00,
2013-02-12 11:00:00,35.0,26.0,-100.00,North,-999,-999.0,-999.0,69,0.00,,,-99.99,,2013-02-12 19:00:00,
2013-02-12 12:00:00,36.0,25.0,-100.00,North,-999,-999.0,-999.0,63,0.00,,,-99.99,,2013-02-12 20:00:00,
2013-02-12 13:00:00,38.0,29.0,-100.00,North,-999,-999.0,-999.0,70,0.00,,,-99.99,,2013-02-12 21:00:00,
2013-02-12 14:00:00,38.0,28.0,-100.00,North,-999,-999.0,-999.0,68,0.00,,,-99.99,,2013-02-12 22:00:00,
2013-02-12 15:00:00,40.0,27.0,-100.00,North,-999,-999.0,-999.0,59,0.00,,,-99.99,,2013-02-12 23:00:00,
2013-02-12 16:00:00,34.0,25.0,-100.00,North,-999,-999.0,-999.0,70,0.00,,,-99.99,,2013-02-13 00:00:00,
2013-02-12 17:00:00,35.0,27.0,-100.00,North,-999,-999.0,-999.0,71,0.00,,,-99.99,,2013-02-13 01:00:00,
2013-02-12 17:52:00,35.0,27.0,-100.00,North,-999,-999.0,-999.0,71,0.00,,,-99.99,,2013-02-13 01:52:00,
2013-02-12 18:00:00,32.0,30.0,-100.00,North,-999,-999.0,-999.0,92,0.00,,,-99.99,,2013-02-13 02:00:00,
2013-02-12 19:00:00,31.0,31.0,-100.00,North,-999,-999.0,-999.0,98,0.00,,,-99.99,,2013-02-13 03:00:00,
2013-02-12 20:00:00,32.0,31.0,-100.00,North,-999,-999.0,-999.0,96,0.00,,,-99.99,,2013-02-13 04:00:00,
2013-02-12 21:00:00,32.0,31.0,-100.00,North,-999,-999.0,-999.0,95,0.02,,,-99.99,,2013-02-13 05:00:00,
2013-02-12 22:00:00,32.0,31.0,-100.00,North,-999,-999.0,-999.0,95,0.03,,,-99.99,,2013-02-13 06:00:00,
2013-02-12 23:00:00,32.0,30.0,-100.00,North,-999,-999.0,-999.0,94,0.04,,,-99.99,,2013-02-13 07:00:00,